TimeCST,TemperatureF,Dew PointF,Humidity,Sea Level PressureIn,VisibilityMPH,Wind Direction,Wind SpeedMPH,Gust SpeedMPH,PrecipitationIn,Events,Conditions,WindDirDegrees,DateUTC
12:56 AM,35.1,27.0,72,30.13,10.0,Calm,Calm,-,N/A,,Clear,0,2012-11-25 06:56:00
1:56 AM,30.9,26.1,82,30.13,10.0,Calm,Calm,-,N/A,,Clear,0,2012-11-25 07:56:00
2:56 AM,30.9,27.0,85,30.14,10.0,NNW,3.5,-,N/A,,Clear,340,2012-11-25 08:56:00
3:56 AM,30.0,27.0,88,30.14,10.0,NW,3.5,-,N/A,,Clear,320,2012-11-25 09:56:00
4:56 AM,28.9,25.0,85,30.15,10.0,Calm,Calm,-,N/A,,Clear,0,2012-11-25 10:56:00
5:56 AM,30.0,26.1,85,30.16,10.0,Calm,Calm,-,N/A,,Clear,0,2012-11-25 11:56:00
6:56 AM,30.9,27.0,85,30.19,10.0,Calm,Calm,-,N/A,,Clear,0,2012-11-25 12:56:00
7:56 AM,41.0,28.9,62,30.21,10.0,East,3.5,-,N/A,,Clear,90,2012-11-25 13:56:00
8:56 AM,46.9,27.0,46,30.22,10.0,East,4.6,-,N/A,,Clear,100,2012-11-25 14:56:00
9:56 AM,53.1,26.1,35,30.21,10.0,East,4.6,-,N/A,,Clear,90,2012-11-25 15:56:00
10:56 AM,57.0,24.1,28,30.19,10.0,NE,3.5,-,N/A,,Clear,40,2012-11-25 16:56:00
11:56 AM,60.1,23.0,24,30.14,10.0,Calm,Calm,-,N/A,,Clear,0,2012-11-25 17:56:00
12:56 PM,62.1,23.0,22,30.12,10.0,Calm,Calm,-,N/A,,Clear,0,2012-11-25 18:56:00
1:56 PM,63.0,21.9,21,30.11,10.0,SSW,3.5,-,N/A,,Clear,210,2012-11-25 19:56:00
2:56 PM,61.0,27.0,27,30.10,10.0,South,4.6,-,N/A,,Clear,190,2012-11-25 20:56:00
3:56 PM,59.0,30.0,33,30.10,10.0,South,9.2,-,N/A,,Clear,170,2012-11-25 21:56:00
4:56 PM,52.0,33.1,49,30.11,10.0,South,3.5,-,N/A,,Clear,190,2012-11-25 22:56:00
5:56 PM,50.0,37.0,61,30.11,10.0,South,3.5,-,N/A,,Clear,190,2012-11-25 23:56:00
6:56 PM,50.0,39.9,68,30.13,10.0,SSW,3.5,-,N/A,,Clear,200,2012-11-26 00:56:00
7:56 PM,46.9,39.9,77,30.13,10.0,Calm,Calm,-,N/A,,Clear,0,2012-11-26 01:56:00
8:56 PM,45.0,39.0,80,30.13,10.0,Calm,Calm,-,N/A,,Clear,0,2012-11-26 02:56:00
9:56 PM,44.1,39.0,82,30.12,10.0,Calm,Calm,-,N/A,,Clear,0,2012-11-26 03:56:00
10:56 PM,36.0,34.0,93,30.12,10.0,Calm,Calm,-,N/A,,Clear,0,2012-11-26 04:56:00
11:56 PM,35.1,33.1,92,30.12,10.0,Calm,Calm,-,N/A,,Clear,0,2012-11-26 05:56:00